| time (UTC) | temp F | wind direction | speed MPH | gust MPH | rain 1hr in | rain 24hr in | rain mn in | humidity % | barometer mb |
| 20260504050537 | 58 | 350 | 0.0 | 0.0 | 2.26 | 2.30 | 0.00 | 49 | 1002.2 |
| 20260504050014 | 58 | 349 | 3.0 | 0.0 | 2.26 | 2.30 | 1.65 | 48 | 1002.3 |
| 20260504045512 | 59 | 349 | 0.0 | 0.0 | 2.26 | 2.30 | 1.65 | 47 | 1002.2 |
| 20260504045009 | 60 | 3 | 0.0 | 0.0 | 1.93 | 1.97 | 1.65 | 46 | 1002.4 |
| 20260504044509 | 262 | 348 | 0.0 | 0.0 | 1.93 | 1.97 | 1.65 | 47 | 1002.5 |
| 20260504044334 | 58 | 348 | 0.0 | 0.0 | 1.60 | 1.64 | 1.65 | 47 | 1002.8 |
| 20260504043525 | 60 | 347 | 0.0 | 0.0 | 1.60 | 1.64 | 1.65 | 46 | 1002.7 |
| 20260504043029 | 34 | 341 | 0.0 | 0.0 | 1.28 | 1.32 | 1.65 | 45 | 1002.5 |
| 20260504042528 | 60 | 306 | 0.0 | 0.0 | 9.59 | 9.99 | 1.65 | 44 | 1002.7 |
| 20260504042028 | 60 | 313 | 0.0 | 0.0 | 3.17 | 3.57 | 1.65 | 45 | 1003.1 |
| 20260504041517 | 60 | 326 | 0.0 | 0.0 | 3.17 | 3.57 | 1.65 | 45 | 1002.9 |
| 20260504041022 | 59 | 344 | 0.0 | 0.0 | 3.17 | 3.57 | 1.65 | 46 | 1002.8 |
| 20260504040509 | 60 | 330 | 0.0 | 0.0 | 0.00 | 0.41 | 1.65 | 45 | 1002.9 |
| 20260504040008 | 60 | 326 | 0.0 | 0.0 | 0.00 | 0.41 | 1.65 | 44 | 1002.8 |
| 20260504035900 | 61 | 349 | 0.0 | 4.0 | 0.00 | 0.41 | 1.65 | 44 | 1003.1 |
| 20260504035646 | 0 | 303 | 0.0 | 0.0 | 0.00 | 0.41 | 1.65 | 1003.0 | |
| 20260504035531 | 60 | 328 | 0.0 | 4.0 | 0.00 | 0.41 | 1.65 | 100 | 1003.1 |
| 20260504035104 | 60 | 342 | 0.0 | 4.0 | 0.00 | 0.41 | 1.65 | 45 | 1003.1 |
| 20260504034520 | 60 | 346 | 0.0 | 4.0 | 0.00 | 0.41 | 1.65 | 45 | 1003.1 |
| 20260504033739 | 61 | 334 | 0.0 | 4.0 | 0.00 | 0.41 | 1.65 | 43 | 1002.9 |
| 20260504033512 | 61 | 333 | 0.0 | 4.0 | 0.00 | 0.41 | 1.65 | 44 | 1003.2 |
| 20260504032508 | 62 | 315 | 0.0 | 4.0 | 0.00 | 0.41 | 1.65 | 43 | 1002.9 |
| 20260504031943 | 62 | 338 | 0.0 | 0.0 | 0.00 | 0.41 | 1.65 | 100 | 1002.8 |
| 20260504031000 | 63 | 18 | 0.0 | 0.0 | 0.00 | 0.41 | 1.65 | 41 | 1003.1 |
| 20260504030505 | 63 | 316 | 0.0 | 4.0 | 0.00 | 0.41 | 1.62 | 41 | 1003.1 |
| 20260504030205 | 64 | 339 | 4.0 | 1.0 | 0.00 | 0.41 | 1.50 | 41 | 1002.9 |
| 20260504030002 | 63 | 314 | 0.0 | 4.0 | 0.00 | 0.41 | 1.57 | 41 | 1003.0 |
| 20260504025847 | 65 | 322 | 1.0 | 4.0 | 0.07 | 0.41 | 1.47 | 39 | 1002.7 |
| 20260504025509 | 63 | 305 | 0.0 | 4.0 | 0.00 | 0.41 | 1.54 | 41 | 1002.9 |
| 20260504025032 | 63 | 334 | 0.0 | 0.0 | 0.00 | 0.41 | 1.54 | 41 | 1002.8 |
| 20260504024036 | 64 | 330 | 0.0 | 4.0 | 0.00 | 0.41 | 1.47 | 40 | 1002.9 |
| 20260504023000 | 64 | 325 | 0.0 | 3.0 | 0.07 | 0.41 | 1.47 | 40 | |
| 20260504022458 | 64 | 291 | 2.0 | 4.0 | 0.13 | 0.41 | 1.47 | 40 | |
| 20260504021958 | 65 | 284 | 0.0 | 4.0 | 0.13 | 0.41 | 1.47 | 38 | 1002.5 |
| 20260504021802 | 66 | 284 | 1.0 | 7.0 | 0.13 | 0.41 | 1.44 | 36 | 1002.2 |
| 20260504021509 | 66 | 276 | 0.0 | 7.0 | 0.13 | 0.41 | 1.47 | 37 | 1002.5 |
| 20260504021045 | 66 | 279 | 1.0 | 7.0 | 0.13 | 0.41 | 1.47 | 37 | 1002.7 |
| 20260504020000 | 66 | 276 | 0.0 | 6.0 | 0.13 | 0.41 | 1.44 | 35 | 1002.2 |
| 20260504015844 | 67 | 287 | 2.0 | 6.0 | 0.13 | 0.41 | 1.41 | 34 | 1002.2 |
| 20260504015459 | 67 | 278 | 3.0 | 8.0 | 0.13 | 0.41 | 1.44 | 35 | 1002.4 |
| 20260504015034 | 67 | 269 | 2.0 | 8.0 | 0.13 | 0.41 | 1.44 | 35 | 1002.1 |
| 20260504014004 | 67 | 327 | 0.0 | 3.0 | 0.13 | 0.41 | 1.41 | 33 | 1002.0 |
| 20260504013459 | 67 | 334 | 0.0 | 0.0 | 0.06 | 0.33 | 1.34 | 34 | 1002.0 |
| 20260504012959 | 67 | 294 | 0.0 | 4.0 | 0.06 | 0.33 | 1.34 | 34 | 1002.2 |
| 20260504012850 | 69 | 306 | 0.0 | 7.0 | 0.00 | 0.28 | 1.22 | 32 | |
| 20260504012508 | 68 | 285 | 0.0 | 7.0 | 0.00 | 0.28 | 1.22 | 33 | |
| 20260504011500 | 69 | 313 | 5.0 | 7.0 | 0.00 | 0.28 | 1.19 | 31 | |
| 20260504010959 | 69 | 342 | 3.0 | 9.0 | 0.00 | 0.28 | 1.13 | 31 | |
| 20260504010505 | 70 | 312 | 4.0 | 9.0 | 0.00 | 0.28 | 1.10 | 30 | |
| 20260504010002 | 70 | 15 | 4.0 | 9.0 | 0.00 | 0.28 | 1.10 | 31 | |
| 20260504005902 | 71 | 331 | 4.0 | 14.0 | 0.00 | 0.28 | 1.07 | 29 | |
| 20260504005515 | 70 | 335 | 1.0 | 14.0 | 0.00 | 0.28 | 1.10 | 30 | |
| 20260504004502 | 71 | 290 | 5.0 | 15.0 | 0.00 | 0.28 | 1.05 | 29 | |
| 20260504004002 | 72 | 304 | 9.0 | 15.0 | 0.00 | 0.28 | 1.04 | 28 | |
| 20260504003458 | 72 | 296 | 2.0 | 15.0 | 0.00 | 0.28 | 1.04 | 29 | |
| 20260504003245 | 73 | 287 | 7.0 | 16.0 | 0.00 | 0.28 | 8.72 | 27 | |
| 20260504002957 | 72 | 292 | 8.0 | 17.0 | 0.00 | 0.28 | 1.04 | 28 | |
| 20260504002520 | 72 | 298 | 6.0 | 17.0 | 0.00 | 0.28 | 9.89 | 28 | |
| 20260504001449 | 73 | 281 | 9.0 | 16.0 | 0.00 | 0.28 | 8.72 | 29 | |
| 20260504000946 | 73 | 279 | 11.0 | 15.0 | 0.00 | 0.28 | 8.47 | 27 | 1001.7 |
| 20260504000453 | 73 | 274 | 8.0 | 16.0 | 0.00 | 0.28 | 8.41 | 28 | 1001.7 |
| 20260503235945 | 73 | 41 | 10.0 | 16.0 | 0.00 | 0.28 | 8.41 | 27 | 1001.8 |
| 20260503235451 | 74 | 317 | 8.0 | 16.0 | 0.00 | 0.28 | 8.41 | 28 | 1001.5 |
| 20260503234953 | 74 | 318 | 1.0 | 16.0 | 0.00 | 0.28 | 8.41 | 28 | 1001.8 |
| 20260503234451 | 74 | 341 | 0.0 | 14.0 | 0.00 | 0.28 | 8.41 | 30 | 1001.6 |
| 20260503233934 | 74 | 327 | 7.0 | 18.0 | 0.00 | 0.28 | 8.41 | 29 | 1001.5 |
| 20260503233456 | 74 | 345 | 13.0 | 18.0 | 0.00 | 0.28 | 8.41 | 28 | 1001.7 |
| 20260503232942 | 74 | 323 | 11.0 | 16.0 | 0.00 | 0.28 | 8.41 | 28 | 1001.4 |
| 20260503232440 | 74 | 326 | 10.0 | 115.0 | 0.00 | 0.28 | 8.41 | 28 | |
| 20260503231926 | 74 | 339 | 8.0 | 115.0 | 0.00 | 0.28 | 8.41 | 29 | 1001.4 |
| 20260503231430 | 74 | 331 | 12.0 | 17.0 | 0.00 | 0.28 | 8.15 | 100 | 1001.4 |
| 20260503230922 | 74 | 320 | 9.0 | 17.0 | 0.00 | 0.28 | 8.15 | 29 | |
| 20260503230423 | 74 | 298 | 6.0 | 16.0 | 0.00 | 0.28 | 8.15 | 28 | |
| 20260503225936 | 74 | 347 | 3.0 | 23.0 | 0.00 | 0.28 | 8.15 | 29 | |
| 20260503225424 | 74 | 327 | 3.0 | 23.0 | 0.00 | 0.28 | 8.15 | 28 | |
| 20260503224921 | 74 | 339 | 3.0 | 21.0 | 0.00 | 0.28 | 8.15 | 30 | |
| 20260503224423 | 74 | 13 | 7.0 | 23.0 | 0.00 | 0.28 | 8.15 | 29 | 1001.7 |
| 20260503223928 | 74 | 333 | 16.0 | 23.0 | 0.00 | 0.28 | 8.15 | 29 | 1001.7 |
| 20260503223421 | 75 | 341 | 7.0 | 22.0 | 0.00 | 0.28 | 7.89 | 29 | |
| 20260503222921 | 74 | 315 | 11.0 | 22.0 | 0.00 | 0.28 | 7.89 | 29 | |
| 20260503222433 | 74 | 311 | 18.0 | 27.0 | 0.00 | 0.28 | 7.89 | 29 | |
| 20260503222332 | 74 | 296 | 12.0 | 22.0 | 0.05 | 0.28 | 6.93 | 28 | |
| 20260503221931 | 74 | 13 | 9.0 | 27.0 | 0.00 | 0.28 | 7.89 | 29 | |
| 20260503221421 | 75 | 270 | 11.0 | 25.0 | 0.00 | 0.28 | 7.64 | 31 | |
| 20260503221233 | 75 | 269 | 14.0 | 25.0 | 0.05 | 0.28 | 6.93 | 29 | |
| 20260503220944 | 74 | 289 | 6.0 | 21.0 | 0.05 | 0.28 | 7.20 | 29 | |
| 20260503220414 | 75 | 312 | 17.0 | 25.0 | 0.05 | 0.28 | 7.20 | 29 | |
| 20260503214851 | 75 | 290 | 15.0 | 29.0 | 0.10 | 0.28 | 6.65 | 29 | |
| 20260503214410 | 75 | 293 | 13.0 | 29.0 | 0.10 | 0.28 | 6.65 | 29 | |
| 20260503213840 | 75 | 294 | 14.0 | 22.0 | 0.10 | 0.28 | 5.96 | 29 | |
| 20260503213706 | 75 | 343 | 9.0 | 23.0 | 0.16 | 0.28 | 5.41 | 30 | |
| 20260503213348 | 75 | 275 | 13.0 | 22.0 | 0.10 | 0.28 | 5.41 | 29 | |
| 20260503212402 | 75 | 311 | 11.0 | 23.0 | 0.16 | 0.28 | 5.41 | 30 | |
| 20260503211837 | 75 | 307 | 9.0 | 26.0 | 0.16 | 0.28 | 5.41 | 29 | |
| 20260503211333 | 75 | 313 | 18.0 | 26.0 | 0.16 | 0.28 | 5.41 | 29 | |
| 20260503210830 | 75 | 273 | 16.0 | 25.0 | 0.16 | 0.22 | 5.16 | 29 | |
| 20260503210331 | 75 | 302 | 13.0 | 25.0 | 0.16 | 0.22 | 4.41 | 29 | |
| 20260503205842 | 75 | 286 | 15.0 | 24.0 | 0.22 | 0.22 | 4.41 | 27 | |
| 20260503205310 | 74 | 246 | 14.0 | 26.0 | 0.22 | 0.22 | 4.41 | 29 | |
| 20260503204956 | 75 | 313 | 16.0 | 22.0 | 0.12 | 0.12 | 2.18 | 31 | |
| 20260503204831 | 75 | 266 | 3.0 | 26.0 | 0.17 | 0.17 | 3.39 | 30 | |
| 20260503204736 | 75 | 309 | 3.0 | 26.0 | 0.17 | 0.17 | 3.39 | 29 | |
| 20260503204638 | 75 | 296 | 13.0 | 26.0 | 0.12 | 0.12 | 3.11 | 29 | |
| 20260503204357 | 75 | 12 | 13.0 | 22.0 | 0.17 | 0.17 | 3.39 | 29 | |
| 20260503202839 | 75 | 287 | 16.0 | 22.0 | 0.12 | 0.12 | 2.56 | 29 | |
| 20260503202306 | 74 | 271 | 13.0 | 22.0 | 0.12 | 0.12 | 2.56 | 33 | |
| 20260503201234 | 75 | 245 | 13.0 | 21.0 | 0.12 | 0.12 | 1.69 | 33 | |
| 20260503200747 | 75 | 286 | 10.0 | 19.0 | 0.06 | 0.06 | 1.57 | 33 | |
| 20260503200233 | 74 | 327 | 13.0 | 24.0 | 0.06 | 0.06 | 1.39 | 33 | |
| 20260503195748 | 74 | 331 | 14.0 | 24.0 | 0.00 | 0.00 | 0.94 | 33 | |
| 20260503140247 | 53 | 152 | 6.0 | 14.0 | 0.00 | 7.97 | 0.77 | 59 | 1006.3 |
| 20260503131120 | 53 | 164 | 6.0 | 13.0 | 0.00 | 7.97 | 0.77 | 58 | 1006.7 |
| 20260503110535 | 52 | 166 | 1.0 | 7.0 | 0.00 | 1.71 | 0.77 | 57 | 1007.7 |
| 20260503090329 | 51 | 0.0 | 0.0 | 0.00 | 1.71 | 0.77 | 58 | 1009.6 | |
| 20260503090139 | 35 | 17 | 0.0 | 0.0 | 0.00 | 2.06 | 0.00 | 91 | 1015.8 |
| 20260503081300 | 51 | 0.0 | 0.0 | 0.00 | 1.71 | 0.77 | 57 | 1010.1 | |
| 20260503080851 | 51 | 0.0 | 0.0 | 0.00 | 1.71 | 0.77 | 100 | 1010.0 | |
| 20260503072811 | 51 | 192 | 0.0 | 3.0 | 0.00 | 1.71 | 0.77 | 57 | 1009.7 |
| 20260503072300 | 51 | 246 | 0.0 | 3.0 | 0.06 | 1.71 | 0.71 | 100 | 1009.5 |
| 20260503071758 | 51 | 221 | 0.0 | 0.0 | 0.06 | 1.71 | 0.49 | 100 | 1009.9 |
| 20260503071639 | 51 | 0.0 | 0.0 | 0.06 | 1.71 | 0.49 | 100 | 1009.9 | |
| 20260503071547 | 51 | 153 | 0.0 | 0.0 | 0.06 | 1.71 | 0.49 | 100 | 1009.8 |
| 20260503071306 | 51 | 0.0 | 0.0 | 0.06 | 1.71 | 0.49 | 100 | 1009.7 | |
| 20260503070846 | 51 | 0.0 | 0.0 | 0.06 | 1.71 | 0.49 | 100 | 1009.6 | |
| 20260503060259 | 50 | 0.0 | 0.0 | 0.00 | 1.70 | 0.22 | 100 | 1010.4 | |
| 20260503054746 | 50 | 105 | 2.0 | 0.0 | 0.00 | 1.70 | 0.22 | 57 | 1010.5 |
| 20260503054248 | 50 | 0.0 | 0.0 | 0.00 | 1.70 | 0.22 | 100 | 1010.5 | |
| 20260503053741 | 50 | 0.0 | 0.0 | 0.00 | 1.70 | 0.22 | 100 | 1010.3 | |
| 20260503053246 | 50 | 145 | 0.0 | 6.0 | 0.00 | 1.70 | 0.22 | 55 | 1010.7 |
| 20260503053041 | 50 | 144 | 0.0 | 2.0 | 0.00 | 1.70 | 0.00 | 55 | 1010.8 |
| 20260503052747 | 50 | 145 | 0.0 | 6.0 | 0.00 | 1.70 | 0.22 | 56 | 1010.6 |
| 20260503052300 | 50 | 142 | 0.0 | 3.0 | 0.00 | 1.70 | 0.00 | 100 | 1010.7 |
| 20260503051832 | 50 | 11 | 0.0 | 3.0 | 0.00 | 1.70 | 0.00 | 55 | 1010.5 |
| 20260503051310 | 50 | 0.0 | 0.0 | 0.00 | 1.70 | 0.00 | 100 | 1010.7 |